{"data":{"norad_id":66722,"epoch":"2026-05-25T03:46:08.590368Z","epoch_age_seconds":57439,"freshness":"FRESH","line1":"1 66722U 25276BJ  26145.15704387  .00005094  00000+0  23462-3 0  9995","line2":"2 66722  97.4185 219.3431 0002319  57.2897 302.8562 15.20736632 26239","mean_motion":15.20736632,"eccentricity":0.0002319,"inclination_deg":97.4185,"raan_deg":219.3431,"arg_perigee_deg":57.2897,"mean_anomaly_deg":302.8562,"bstar":0.00023462,"rev_number":2623,"period_min":94.690952377874,"perigee_km":502.02152825192,"apogee_km":505.21328594593,"semimajor_km":6881.7544070989,"source":"CELESTRAK","updated_at":"2026-05-25T13:38:13.349403Z"}}